Wind_Speed
9 11 11 10 10 9 7 6 5 5 6 8 9 8 11 12 5 8 6 10 9 13 15 19 10 12 2 3 3 3 4 2 3 2 3 2 0 2 2 1 2 3 5 15 31
10 10 11 11 10 9 10 8 6 5 5 5 8 8 9 9 4 5 12 12 9 11 16 14 8 11 2 2 3 4 3 4 4 3 4 3 3 2 1 3 3 12 13 21 26
9 10 11 13 11 9 8 10 9 6 6 6 5 8 9 7 2 2 15 12 10 11 12 7 6 3 3 2 2 2 3 3 4 4 5 2 1 2 2 3 5 20 21 15 23
10 10 11 11 13 11 10 8 9 7 7 7 6 7 8 0 1 4 13 9 9 9 9 8 5 3 3 2 2 1 2 1 3 3 2 3 4 4 5 5 9 10 14 19 16
10 11 12 12 13 14 12 10 9 6 6 7 6 5 3 1 2 9 12 7 3 6 11 3 6 3 2 2 3 3 1 4 5 4 4 6 2 2 4 10 8 11 13 17 18
10 11 12 14 14 14 15 11 9 5 4 5 6 3 2 0 2 10 10 5 4 6 6 6 1 3 2 2 2 4 4 6 6 3 3 4 4 3 6 13 12 15 18 18 18
10 10 11 12 15 16 12 12 8 5 5 3 3 1 1 2 1 12 7 3 3 4 3 2 3 4 2 3 2 2 4 7 4 6 3 7 3 3 8 10 15 15 16 18 18
9 9 10 12 14 14 14 9 6 5 3 2 1 2 1 3 3 12 8 2 4 5 6 7 3 2 1 4 3 3 5 4 5 3 2 5 2 5 7 11 17 17 17 19 20
8 8 9 11 12 12 11 7 4 5 0 2 1 2 3 2 2 7 8 3 11 4 5 8 3 2 6 3 4 7 3 2 6 2 1 1 2 5 5 12 17 18 19 19 20
10 8 8 9 12 12 10 7 4 4 1 1 4 1 1 2 3 6 6 4 3 7 3 3 4 3 4 5 1 3 3 4 6 4 3 4 3 6 4 9 14 16 20 20 21
12 11 9 10 10 11 9 2 5 1 6 2 1 2 1 7 2 6 8 5 1 0 1 2 6 1 4 2 1 3 4 6 4 5 5 3 3 4 6 7 15 17 19 20 21
13 12 9 6 6 7 5 5 4 1 6 6 3 2 1 2 3 3 9 2 1 2 1 4 1 3 5 2 2 0 1 3 7 5 4 6 3 4 7 5 13 18 20 22 24
17 12 11 6 3 4 8 5 4 5 3 3 1 2 2 1 2 5 5 1 3 2 2 4 2 3 1 2 5 1 3 2 5 7 1 5 4 4 9 4 15 17 17 18 21
18 14 13 12 1 4 2 6 3 2 2 2 1 1 0 1 2 1 3 2 3 3 2 2 1 3 1 1 2 3 3 6 7 1 1 2 4 3 14 13 21 21 21 22 22
19 17 13 8 5 4 4 4 3 1 4 3 1 0 1 1 1 0 6 1 3 2 3 1 3 4 3 3 2 6 11 5 3 3 2 4 2 5 8 19 24 23 23 23 22
23 17 12 7 6 6 8 6 2 2 5 1 1 1 1 1 1 1 4 6 2 3 2 2 2 3 2 4 2 9 4 5 3 2 3 4 4 4 6 11 20 21 22 22 22
20 16 15 9 3 12 11 4 2 3 1 1 1 1 2 2 2 4 4 5 2 3 1 4 2 1 3 3 5 8 5 3 5 5 4 4 3 6 6 7 6 15 20 19 17
22 20 11 7 11 15 7 2 4 1 2 2 3 4 1 3 1 2 1 3 3 3 3 2 2 5 6 2 2 4 3 5 4 2 5 4 2 4 5 5 8 8 12 16 19
25 15 9 11 15 14 3 1 4 3 3 5 3 1 2 2 1 2 2 3 1 1 4 3 1 0 2 3 2 4 5 2 5 1 2 3 3 2 8 12 14 17 18 19 19
18 10 5 13 14 5 2 5 3 2 5 3 7 3 2 3 2 2 0 1 2 1 2 2 3 2 2 1 6 6 2 4 3 4 5 4 4 4 11 13 15 18 18 19 19
9 3 3 12 9 2 3 5 3 2 2 4 4 4 4 3 3 3 2 1 2 1 3 3 3 3 2 5 1 4 4 4 3 3 4 3 5 5 4 7 8 13 14 15 17
7 2 6 11 2 1 2 3 3 4 2 1 1 1 6 4 2 2 4 1 3 2 2 1 3 3 1 3 2 2 2 3 4 6 1 3 5 1 4 6 2 10 11 13 13
3 3 1 2 3 3 1 1 2 4 4 4 4 3 2 4 1 2 3 1 3 2 3 3 1 2 5 4 4 1 2 4 4 3 3 4 5 4 1 7 4 5 10 12 13
4 3 1 1 1 3 5 4 5 0 3 4 4 2 2 2 1 4 3 1 2 1 5 2 2 4 4 5 4 1 2 3 4 3 3 5 6 5 7 7 8 8 9 10 10
1 4 5 5 6 4 5 8 6 6 2 5 2 5 6 3 2 4 3 3 2 3 2 3 2 2 2 1 3 4 4 4 5 4 5 4 5 8 5 4 6 6 8 10 13
3 3 1 3 3 14 9 8 11 5 8 5 5 10 5 5 5 8 6 4 4 2 2 2 3 2 4 3 2 4 6 7 3 3 8 4 9 5 3 1 5 5 7 8 11
2 1 3 4 3 7 6 8 11 11 4 1 8 6 4 2 4 3 5 6 5 6 3 3 3 2 3 3 4 5 7 9 4 4 6 4 6 2 0 4 3 5 4 6 9
Wind_Direction
353 352 354 360 3 3 357 344 335 336 338 338 344 346 346 337 347 8 16 332 324 335 340 345 357 344 264 334 44 73 65 133 175 195 257 303 111 329 121 129 259 154 241 288 307
347 347 344 349 357 359 350 344 329 324 325 334 346 345 353 357 347 5 346 335 330 341 346 344 321 352 35 76 23 72 95 184 195 191 212 231 182 201 39 332 255 303 301 309 317
339 338 341 341 344 352 352 346 328 318 310 307 332 335 342 351 22 298 345 335 333 338 339 337 306 214 68 66 20 122 153 206 204 210 208 233 174 77 350 325 316 318 316 317 326
327 332 335 338 334 340 341 336 327 314 313 303 316 330 336 29 233 331 341 343 332 355 18 21 10 41 72 35 349 54 216 223 245 264 255 194 118 112 78 260 285 300 324 322 322
326 328 333 334 336 336 335 327 324 307 316 322 322 338 72 75 250 343 339 348 7 37 35 42 43 28 111 309 345 177 267 291 271 305 151 100 77 72 318 304 289 305 324 327 324
325 330 331 332 334 336 331 330 328 305 291 323 325 347 112 220 170 336 341 348 23 23 8 43 55 228 260 263 171 203 225 272 267 217 141 126 57 53 301 324 313 332 333 330 325
322 322 326 332 333 334 332 332 335 323 288 303 327 325 141 181 69 2 351 306 1 344 335 4 354 34 323 270 290 275 318 346 348 176 150 118 85 334 290 325 338 337 330 327 328
311 314 325 330 334 337 331 326 340 339 292 303 326 245 223 182 257 346 13 224 301 294 273 299 331 246 279 314 33 72 59 10 300 158 232 171 247 272 322 345 348 337 337 333 332
298 308 316 326 336 337 330 323 335 346 333 308 289 183 283 173 345 341 351 328 320 309 280 277 313 49 11 40 33 7 291 280 308 347 179 49 276 275 341 355 348 343 340 336 333
286 291 306 328 340 342 339 307 319 341 358 271 263 287 98 319 329 330 344 350 328 331 12 99 52 57 25 24 240 281 314 280 258 292 291 111 277 261 327 7 344 338 343 339 337
274 282 301 320 335 340 347 315 28 323 11 235 181 269 314 321 276 351 336 1 141 12 221 40 66 311 287 260 169 210 213 271 269 263 13 136 195 286 313 358 352 343 343 340 338
259 271 283 314 343 347 11 68 127 187 300 235 164 145 67 351 321 327 355 90 57 181 357 36 136 251 265 105 28 349 229 279 300 286 305 205 230 270 344 341 353 348 346 339 336
250 261 267 282 309 23 91 110 151 154 254 292 138 153 205 341 183 317 17 6 76 78 344 164 164 309 46 22 11 297 175 194 243 308 339 124 321 342 326 342 351 353 343 341 339
251 252 261 271 207 161 81 149 167 182 280 183 254 16 157 108 271 319 14 103 49 148 175 112 4 48 17 11 74 317 172 310 282 297 235 157 278 360 339 338 354 347 348 345 343
244 248 260 230 167 160 176 161 165 125 294 90 192 238 57 175 37 284 42 81 122 116 104 195 17 31 18 333 6 253 317 277 214 212 32 339 58 288 350 349 343 344 341 344 340
238 253 215 195 201 174 158 146 182 49 251 69 93 30 342 37 315 45 30 31 113 77 336 121 80 73 276 310 325 314 0 33 50 80 40 266 120 327 338 322 331 337 337 339 337
233 212 195 169 200 162 150 148 39 210 155 357 291 215 181 344 342 28 37 16 67 78 338 7 35 348 7 355 6 12 43 353 356 8 218 297 55 236 292 322 293 321 326 335 346
218 201 186 186 149 149 145 93 199 253 183 50 0 354 258 33 7 8 77 60 51 67 93 149 321 8 336 79 235 5 96 128 241 319 292 345 309 276 223 341 312 307 319 341 353
193 161 161 165 159 156 119 173 220 218 116 149 116 59 264 152 174 30 52 156 98 97 143 120 118 120 56 39 85 328 37 172 99 196 357 288 302 44 310 345 351 345 347 352 354
150 132 132 165 169 130 111 227 225 109 118 86 204 224 258 188 160 124 150 64 125 99 137 169 70 24 105 10 39 87 143 27 8 36 329 305 291 250 336 329 340 345 344 345 348
126 98 140 164 148 90 194 213 150 99 125 177 199 176 258 199 197 177 164 150 143 144 96 139 100 283 20 14 27 359 14 37 109 113 156 295 278 202 247 288 311 319 328 338 344
141 132 183 165 142 199 202 190 107 152 72 127 184 250 189 186 144 167 186 132 161 148 104 111 143 98 140 314 320 93 109 120 115 278 139 160 280 145 207 279 300 302 318 333 342
98 107 64 295 180 201 82 117 155 148 185 172 197 245 261 201 147 142 117 95 97 90 167 189 18 52 356 350 10 235 169 123 117 85 216 128 271 173 77 316 319 294 328 335 340
131 125 85 286 265 178 166 197 175 56 151 151 197 165 135 173 28 166 139 153 104 108 112 106 104 151 187 202 129 141 281 132 124 115 196 227 289 278 348 337 339 335 329 329 337
180 181 172 183 230 203 187 149 146 184 222 164 248 229 172 156 79 170 135 119 64 162 71 112 132 128 273 158 163 189 187 184 165 191 170 259 221 280 271 272 297 295 321 340 350
146 142 156 184 132 176 190 205 174 152 160 203 231 189 192 161 182 193 134 193 188 72 93 352 116 109 5 95 30 266 210 200 224 245 257 251 278 210 232 172 329 313 347 335 337
174 149 138 144 161 173 200 181 188 134 210 343 187 153 187 209 85 36 92 81 118 141 134 116 124 87 281 32 347 319 220 183 191 219 167 201 229 213 246 90 276 315 343 312 321
Height
827 827 824 819 818 815 813 812 811 809 807 808 807 806 805 804 803 802 801 802 799 797 795 791 789 789 788 789 789 792 814 823 808 806 804 803 803 804 804 805 805 806 806 796 789
827 824 824 821 818 815 814 812 810 808 806 806 806 805 803 802 803 803 804 801 799 797 794 791 790 788 790 790 793 801 816 803 801 801 804 801 802 803 806 808 808 806 801 795 787
826 825 823 823 819 815 812 812 811 807 806 805 803 803 803 802 803 803 802 801 799 797 794 791 790 790 789 791 794 797 807 798 798 796 797 797 801 804 808 810 808 800 791 791 786
827 824 822 820 821 817 813 810 809 807 805 805 802 800 800 802 802 802 801 799 799 796 793 790 790 793 797 796 794 797 795 795 795 794 795 798 801 806 812 813 805 801 793 789 785
826 825 822 819 818 815 813 810 806 804 804 803 802 800 799 802 802 800 798 798 797 796 794 793 795 797 798 797 795 797 795 795 794 794 795 799 804 806 811 805 802 797 792 787 781
825 823 822 821 817 814 813 809 805 802 802 801 802 799 799 802 800 799 797 798 796 796 796 794 796 796 797 796 798 794 795 795 791 790 794 799 810 807 808 803 799 794 788 783 778
823 822 820 818 817 814 811 809 805 802 802 800 800 800 799 799 798 796 796 797 796 796 797 796 795 796 795 795 791 790 794 794 790 794 796 801 812 814 808 803 800 794 790 782 777
821 820 818 816 815 811 811 807 805 801 800 801 799 801 796 796 796 797 795 796 796 795 797 796 795 795 796 794 794 795 808 814 797 793 793 796 806 810 806 802 800 795 788 780 772
818 817 816 815 812 810 808 806 804 802 800 801 801 798 798 797 796 797 795 795 793 793 794 795 795 799 800 806 813 822 821 816 805 791 793 797 809 807 805 802 800 795 788 779 769
817 815 815 813 810 809 806 804 801 802 801 800 801 801 800 799 797 797 796 794 795 793 793 795 804 813 819 818 833 816 822 816 812 799 793 809 808 806 803 804 803 797 790 780 770
815 815 813 812 811 808 805 804 803 805 802 801 800 798 797 798 798 799 796 792 795 796 798 800 815 827 815 813 806 808 816 816 807 798 800 809 813 803 803 805 804 796 791 782 772
811 811 811 810 810 808 806 807 811 815 809 799 796 796 796 800 799 799 795 794 794 797 799 807 811 807 808 806 809 808 809 810 808 798 797 810 813 815 804 810 805 798 792 784 769
808 809 809 809 808 808 808 811 810 812 813 797 797 796 799 799 801 801 799 798 796 799 806 809 805 804 802 807 811 810 808 813 818 803 792 804 819 827 808 806 803 800 797 788 777
806 806 807 807 809 809 810 810 811 812 809 797 799 798 799 798 800 800 800 800 798 803 806 806 807 807 806 808 812 815 804 809 810 811 827 795 830 826 812 810 804 800 794 786 776
802 804 805 805 805 807 811 811 811 812 795 799 800 800 798 800 803 801 800 799 804 803 809 806 807 810 809 807 807 809 806 809 804 809 810 813 834 833 820 810 809 804 797 789 779
799 801 802 803 804 805 808 811 813 809 791 800 800 799 799 800 802 801 803 804 806 804 806 806 806 809 810 807 805 806 808 809 806 821 852 836 829 837 844 835 819 811 802 795 782
797 798 800 802 803 804 808 811 809 799 794 799 801 802 802 802 802 805 818 823 820 818 825 812 810 810 812 811 808 813 835 875 857 868 855 829 822 845 834 831 836 824 811 800 792
790 795 798 802 803 804 809 810 801 788 793 808 805 802 802 808 807 807 815 823 828 829 841 819 814 818 816 817 824 824 841 876 844 880 849 808 844 831 825 828 830 825 817 803 793
785 793 799 801 802 804 808 803 792 790 799 805 808 816 808 808 815 810 815 828 828 835 827 837 815 818 817 819 821 827 854 843 882 879 853 829 826 824 825 826 826 820 812 805 796
787 794 799 801 803 805 807 794 796 804 809 812 801 808 796 807 809 815 816 827 830 828 831 838 835 817 817 817 825 830 835 863 878 895 895 845 850 843 841 836 829 825 819 808 799
788 792 802 803 805 805 799 795 804 812 810 813 807 808 806 808 808 810 817 827 826 829 829 840 842 831 823 840 839 843 868 854 860 874 909 879 845 857 857 848 849 838 829 817 807
786 795 805 804 805 804 798 800 807 813 815 814 815 806 803 805 812 817 814 822 824 827 837 835 850 853 844 842 839 839 842 859 882 884 900 887 849 841 849 846 850 841 833 821 813
790 800 804 805 795 798 811 810 810 813 813 816 815 808 806 806 813 813 823 826 826 827 839 837 849 866 847 852 843 841 842 859 880 902 907 892 847 837 845 846 843 849 834 825 816
783 794 806 805 803 794 803 803 808 814 811 815 811 807 807 808 811 821 826 827 827 828 825 832 856 844 833 847 861 866 867 851 866 889 904 874 851 834 841 846 838 841 836 829 821
769 778 781 796 794 791 791 792 802 808 814 816 814 807 806 822 823 820 825 830 829 826 835 840 839 857 842 837 843 848 869 876 879 867 869 866 867 843 850 852 845 848 840 830 823
769 770 781 778 778 783 784 788 788 803 806 811 809 803 806 812 807 816 824 828 824 837 844 844 835 847 853 839 842 842 841 850 863 851 856 860 848 837 846 848 848 848 843 836 828
768 769 767 773 779 776 774 775 780 791 802 801 803 806 809 805 813 818 819 821 823 831 842 845 846 855 854 851 867 847 854 848 851 860 850 847 836 832 839 839 844 842 844 842 831